Regional Weather Roundup
Issued by NWS

Home | Current Version | Previous Version | Graphics & Text | Print | Product List | Glossary On
Versions: 1 2 3 4 5 6 7 8 9 10 11 12 13 14 15 16 17 18 19 20 21 22 23 24 25 26 27 28 29 30 31 32 33 34 35 36 37 38 39 40 41 42 43 44 45 46 47 48 49 50
000
ASUS43 KIND 192259
RWRIN

WEATHER ROUNDUP FOR INDIANA
NATIONAL WEATHER SERVICE INDIANAPOLIS IN
700 PM EDT FRI SEP 19 2014

NOTE: "FAIR" INDICATES FEW OR NO CLOUDS BELOW 12,000 FEET WITH NO
SIGNIFICANT WEATHER AND/OR OBSTRUCTIONS TO VISIBILITY.

* - STATION DOES NOT REPORT WEATHER SUCH AS PRECIPITATION OR FOG.

+ - STATION NOT QUALITY CONTROLLED BY THE NATIONAL WEATHER SERVICE.
    USE DATA WITH CAUTION...ESPECIALLY DEWPOINT AND RELATIVE
    HUMIDITY OBSERVATIONS.

INZ001>003-010>013-019-020-200000-
NORTHWEST INDIANA

CITY           SKY/WX    TMP DP  RH WIND       PRES   REMARKS
GARY /AIRPORT/ PTCLDY    73  43  33 S7        30.03F
KNOX *+        CLEAR     70  45  40 S7        30.04F
VALPARAISO     CLEAR     70  44  39 S8        30.05S

$$

LMZ046-743>745-200000-
SOUTHERN LAKE MICHIGAN

STATION/POSITION TIME  TEMP WIND        PRES
                       AIR  DIR/SP/G
                 (UTC) (F)  (DEG/KT/KT) (MB)
MICHIGAN CITY    2200   71  130/ 12/ 17   N/A

$$

INZ004-005-014>016-021>024-200000-
NORTH CENTRAL INDIANA

CITY           SKY/WX    TMP DP  RH WIND       PRES   REMARKS
ELKHART        CLEAR     68  45  42 S12       30.07F
GOSHEN         CLEAR     69  49  48 SE7       30.06F
SOUTH BEND     CLEAR     69  47  45 S12       30.06F
WARSAW +       CLEAR     68  46  45 CALM      30.07F

$$

INZ006>009-017-018-025>027-200000-
NORTHEAST INDIANA

CITY           SKY/WX    TMP DP  RH WIND       PRES   REMARKS
ANGOLA *+      CLEAR     66  57  72 S6        30.08F
FORT WAYNE     MOCLDY    67  50  54 SE7       30.09F

$$

INZ028-029-035-036-043>045-051>053-200000-
WEST CENTRAL INDIANA

CITY           SKY/WX    TMP DP  RH WIND       PRES   REMARKS
GREENCASTLE +  CLEAR     68  52  56 S3        30.07S
LAFAYETTE      CLEAR     69  48  47 S3        30.05S
TERRE HAUTE    CLEAR     71  52  50 SE6       30.06S

$$

INZ030>032-037>040-046>048-054>057-064-065-200000-
CENTRAL INDIANA

CITY           SKY/WX    TMP DP  RH WIND       PRES   REMARKS
COLUMBUS       CLEAR     72  48  43 SE5       30.07S
FRANKFORT +    CLEAR     70  49  46 SE6       30.07F
INDIANAPOLIS   PTCLDY    70  47  43 SE9       30.06F
-EAGLE CREEK   CLEAR     71  46  40 SE3       30.06F
KOKOMO *+      CLEAR     66  48  52 SE6       30.08S
MT COMFORT *+  CLEAR     70  37  30 SE5       30.08S
SHELBYVILLE    CLEAR     73  48  41 SE7       30.07S

$$

INZ033-034-041-042-049-050-058-059-200000-
EAST CENTRAL INDIANA

CITY           SKY/WX    TMP DP  RH WIND       PRES   REMARKS
MUNCIE         CLEAR     69  44  40 SE6       30.08F

$$

INZ060-061-067>069-081>083-085>088-200000-
SOUTHWEST INDIANA

CITY           SKY/WX    TMP DP  RH WIND       PRES   REMARKS
EVANSVILLE     CLEAR     78  53  41 E5        30.03S

$$

INZ062-063-066-070>080-084-089>092-200000-
SOUTH CENTRAL AND SOUTHEAST INDIANA

CITY           SKY/WX    TMP DP  RH WIND       PRES   REMARKS
BLOOMINGTON    CLEAR     71  51  49 SE3       30.07S

$$



USA.gov is the U.S. government's official web portal to all federal, state and local government web resources and services.